Regional Weather Roundup
Issued by NWS Sioux Falls, SD

Home | Current Version | Previous Version | Graphics & Text | Print | Product List | Glossary On
Versions: 1 2 3 4 5 6 7 8 9 10 11 12 13 14 15 16 17 18 19 20 21 22 23 24 25 26 27 28 29 30 31 32 33 34 35 36 37 38 39 40 41 42 43 44 45 46 47 48 49 50
000
ASUS43 KFSD 202002
RWRFSD

WEATHER ROUNDUP FOR SE SOUTH DAKOTA/SW MINNESOTA/NW IOWA
NATIONAL WEATHER SERVICE SIOUX FALLS SD
300 PM CDT MON APR 20 2015

NOTE: "FAIR" INDICATES FEW OR NO CLOUDS BELOW 12,000 FEET WITH NO
SIGNIFICANT WEATHER AND OR OBSTRUCTIONS TO VISIBILITY.


SDZ038>040-050-052>070-202100-
SOUTHEAST SOUTH DAKOTA

CITY           SKY/WX    TMP DP  RH WIND       PRES   REMARKS
BROOKINGS      CLOUDY    43  27  52 NW31G39   29.67S
CHAMBERLAIN    NOT AVBL
HURON          SUNNY     54   7  15 NW33G43   29.70F
MADISON        FAIR      46  21  36 NW31G40   29.68F
MITCHELL       SUNNY     56   1  10 NW38G51   29.73S
SIOUX FALLS    MOSUNNY   53  19  26 NW32G41   29.68S
WINNER         MOCLDY    56  15  20 NW30G44   29.80F
YANKTON        SUNNY    N/A N/A N/A NW33G45   29.72S
$$

MNZ071-072-080-081-089-090-097-098-202100-
SOUTHWEST MINNESOTA

CITY           SKY/WX    TMP DP  RH WIND       PRES   REMARKS
FAIRMONT       CLOUDY    41  30  65 NW24G30   29.63R
JACKSON        CLOUDY    43  32  65 NW21G31   29.64S
LUVERNE        MOSUNNY   50  23  34 NW28G39   29.67R
MARSHALL       CLOUDY    37  28  70 NW21G29   29.65R
MONTEVIDEO     CLOUDY    41  36  81 NW20G29   29.63F
PIPESTONE      PTSUNNY   45  25  45 NW30G41   29.66R
REDWOOD FALLS  CLOUDY    43  33  68 W26G33    29.62R
TRACY          CLOUDY    42  32  68 NW21G30   29.65R
WORTHINGTON    CLOUDY    46  25  42 NW29G38   29.64S
$$

IAZ001>003-012>014-020>022-031-032-NEZ013-014-SDZ071-202100-
NORTHWEST IOWA

CITY           SKY/WX    TMP DP  RH WIND       PRES   REMARKS
DENISON        MOSUNNY   54  21  28 W23G38    29.69F
ESTHERVILLE    CLOUDY    45  31  58 NW24G36   29.64R
SIOUX CITY     LGT RAIN  57  14  18 NW26G44   29.69F
SPENCER        PTSUNNY   53  25  33 NW29G39   29.64F
$$

ABBREVIATIONS USED IN REMARKS
   TC - TEMPERATURE IN CELSIUS
  WCI - WIND CHILL INDEX
   HX - HEAT INDEX
  VSB - VISIBILITY



USA.gov is the U.S. government's official web portal to all federal, state and local government web resources and services.